Regional Weather Roundup
Issued by NWS

Home | Current Version | Previous Version | Text Only | Print | Product List | Glossary Off
Versions: 1 2 3 4 5 6 7 8 9 10 11 12 13 14 15 16 17 18 19 20 21 22 23 24 25 26 27 28 29 30 31 32 33 34 35 36 37 38 39 40 41 42 43 44 45 46 47 48 49 50

000
ASUS43 KFSD 260610
RWRSD

WEATHER ROUNDUP FOR SOUTH DAKOTA
NATIONAL WEATHER SERVICE SIOUX FALLS SD
100 AM CDT TUE MAY 26 2015

NOTE: "FAIR" INDICATES FEW OR NO CLOUDS BELOW 12,000 FEET WITH NO
SIGNIFICANT WEATHER AND/OR OBSTRUCTIONS TO VISIBILITY.


SDZ001>005-009-010-012>017-260700-
NORTHWEST AND NORTH CENTRAL SOUTH DAKOTA

CITY           SKY/WX    TMP DP  RH WIND       PRES   REMARKS
BUFFALO          N/A     50  49  96 SE5       29.89R
FAITH            N/A     54  50  86 NW3       29.96R
MOBRIDGE       PTCLDY    53  53 100 N3        29.90R
$$

SDZ012>016-024>037-041>051-057-063-072>074-260700-
SOUTHWEST AND SOUTH CENTRAL SOUTH DAKOTA

CITY           SKY/WX    TMP DP  RH WIND       PRES   REMARKS
RAPID CTY ARPT CLOUDY    53  51  93 N3        29.96S
PIERRE         CLOUDY    56  53  90 N8        29.90R
CUSTER         MOCLDY    47  44  90 CALM      29.99S
ELLSWORTH AFB  CLOUDY    52  52 100 N5        29.96S
PHILIP         CLOUDY    56  53  90 N7        29.93R
PINE RIDGE     CLOUDY    54  51  90 NE7       29.95R
SPEARFISH      FAIR      43  43 100 SE3       29.98R
WINNER         CLOUDY    55  49  80 N8        29.88S
$$

SDZ004>011-016>023-039-040-260700-
NORTHEAST SOUTH DAKOTA

CITY           SKY/WX    TMP DP  RH WIND       PRES   REMARKS
ABERDEEN       PTCLDY    53  50  89 N3        29.90R
WATERTOWN      MOCLDY    51  48  89 N8        29.85F
BROOKINGS      MOCLDY    54  50  87 CALM      29.85R
SISSETON         N/A     51  50  96 NW8       29.88R
$$

SDZ017-020-022-023-036>040-048>070-260700-
SOUTHEAST SOUTH DAKOTA

CITY           SKY/WX    TMP DP  RH WIND       PRES   REMARKS
SIOUX FALLS    CLOUDY    58  54  86 NE7       29.82S
HURON          MOCLDY    54  50  86 N9        29.86F
CHAMBERLAIN    CLOUDY    56  50  80 N9        29.87F
MITCHELL       MOCLDY    56  53  90 N6        29.85S
YANKTON        CLOUDY    61  57  88 N5        29.80S
$$

ABBREVIATIONS USED IN REMARKS
   TC - TEMPERATURE IN CELSIUS
  WCI - WIND CHILL INDEX
   HX - HEAT INDEX
  VSB - VISIBILITY



USA.gov is the U.S. government's official web portal to all federal, state and local government web resources and services.